This is the latest recevied weather packets stored in our database for station/object AG1T-20. If no packets are shown the sender has not sent any weather packets the latest 10 day(s).
| Time | Temp. | Humidity | Pressure | Rain* | Wind** | Luminosity | Snow |
|---|---|---|---|---|---|---|---|
| 1777854605 | 23.33° C | 13% | 1013.8 hPa | 0 mm | - | 72 W/m² | - |
| 1777854005 | 24.44° C | 18% | 1013.8 hPa | 0 mm | - | 60 W/m² | - |
| 1777853405 | 25° C | 13% | 1013.8 hPa | 0 mm | - | 111 W/m² | - |
| 1777852805 | 24.44° C | 13% | 1013.8 hPa | 0 mm | - | 137 W/m² | - |
| 1777852205 | 23.33° C | 13% | 1014.3 hPa | 0 mm | - | 162 W/m² | - |
| 1777851605 | 23.89° C | 15% | 1014.3 hPa | 0 mm | - | 191 W/m² | - |
| 1777851005 | 25° C | 14% | 1014.3 hPa | 0 mm | - | 214 W/m² | - |
| 1777850405 | 24.44° C | 15% | 1014.3 hPa | 0 mm | - | 247 W/m² | - |
| 1777849805 | 23.89° C | 13% | 1014.3 hPa | 0 mm | - | 277 W/m² | - |
| 1777849205 | 25° C | 16% | 1014.3 hPa | 0 mm | - | 310 W/m² | - |
| 1777848605 | 23.89° C | 18% | 1015 hPa | 0 mm | - | 341 W/m² | - |
| 1777848005 | 23.33° C | 17% | 1015 hPa | 0 mm | - | 400 W/m² | - |
| 1777847405 | 23.89° C | 16% | 1015 hPa | 0 mm | - | 453 W/m² | - |
| 1777846805 | 24.44° C | 16% | 1015 hPa | 0 mm | - | 512 W/m² | - |
| 1777846205 | 23.33° C | 18% | 1015 hPa | 0 mm | - | 523 W/m² | - |
| 1777845605 | 24.44° C | 15% | 1015 hPa | 0 mm | - | 444 W/m² | - |
| 1777845005 | 23.33° C | 15% | 1015.7 hPa | 0 mm | - | 550 W/m² | - |
| 1777844405 | 23.89° C | 17% | 1015.7 hPa | 0 mm | - | 571 W/m² | - |
| 1777843805 | 23.33° C | 16% | 1015.7 hPa | 0 mm | - | 617 W/m² | - |
| 1777843205 | 22.78° C | 18% | 1015.7 hPa | 0 mm | - | 635 W/m² | - |
| 1777842605 | 23.33° C | 18% | 1015.7 hPa | 0 mm | - | 649 W/m² | - |
| 1777842005 | 23.89° C | 20% | 1015.7 hPa | 0 mm | - | 680 W/m² | - |
| 1777841405 | 23.33° C | 23% | 1016.5 hPa | 0 mm | - | 706 W/m² | - |
| 1777840805 | 22.78° C | 18% | 1016.5 hPa | 0 mm | - | 728 W/m² | - |
| 1777840205 | 22.78° C | 19% | 1016.5 hPa | 0 mm | - | 766 W/m² | - |
* Rain latest hour (hover to see other rain measurements)
** Current wind speed in m/s (hover to see current wind gust speed)